| time (UTC) | temp F | wind direction | speed MPH | gust MPH | rain 1hr in | rain 24hr in | rain mn in | humidity % | barometer mb |
| 20260504021511 | 40 | 5 | 4.0 | 9.0 | 0.00 | 0.01 | 0.00 | 95 | 1005.1 |
| 20260504020016 | 40 | 40 | 6.0 | 11.0 | 0.00 | 0.01 | 0.00 | 95 | 1005.1 |
| 20260504014512 | 40 | 355 | 5.0 | 9.0 | 0.00 | 0.01 | 0.00 | 95 | 1005.0 |
| 20260504013012 | 40 | 346 | 2.0 | 6.0 | 0.00 | 0.01 | 0.00 | 95 | 1005.0 |
| 20260504011510 | 41 | 32 | 0.0 | 6.0 | 0.00 | 0.01 | 0.00 | 94 | 1005.0 |
| 20260504010008 | 41 | 5 | 1.0 | 5.0 | 0.00 | 0.01 | 0.00 | 94 | 1005.0 |
| 20260504004509 | 40 | 9 | 0.0 | 3.0 | 0.00 | 0.01 | 0.00 | 93 | 1005.1 |
| 20260504003009 | 40 | 9 | 0.0 | 4.0 | 0.00 | 0.01 | 0.00 | 92 | 1005.2 |
| 20260504001510 | 41 | 16 | 1.0 | 5.0 | 0.00 | 0.01 | 0.00 | 92 | 1005.3 |
| 20260504000009 | 41 | 22 | 1.0 | 5.0 | 0.00 | 0.01 | 0.00 | 91 | 1005.3 |
| 20260503233009 | 42 | 98 | 0.0 | 3.0 | 0.00 | 0.01 | 0.00 | 90 | 1005.5 |
| 20260503231511 | 43 | 140 | 0.0 | 0.0 | 0.00 | 0.01 | 0.00 | 89 | 1005.6 |
| 20260503230010 | 43 | 140 | 0.0 | 2.0 | 0.00 | 0.01 | 0.00 | 88 | 1005.6 |
| 20260503224510 | 44 | 148 | 0.0 | 0.0 | 0.00 | 0.01 | 0.00 | 88 | 1005.8 |
| 20260503223010 | 45 | 148 | 0.0 | 0.0 | 0.00 | 0.01 | 0.00 | 88 | 1006.0 |
| 20260503221502 | 45 | 149 | 0.0 | 0.0 | 0.00 | 0.01 | 0.00 | 87 | 1006.0 |
| 20260503220010 | 45 | 148 | 0.0 | 0.0 | 0.00 | 0.01 | 0.01 | 87 | 1005.8 |
| 20260503214510 | 46 | 148 | 0.0 | 0.0 | 0.00 | 0.01 | 0.01 | 88 | 1006.2 |
| 20260503213011 | 46 | 148 | 0.0 | 1.0 | 0.00 | 0.01 | 0.01 | 87 | 1006.2 |
| 20260503211509 | 46 | 148 | 0.0 | 2.0 | 0.00 | 0.01 | 0.01 | 87 | 1006.2 |
| 20260503210010 | 46 | 150 | 1.0 | 3.0 | 0.00 | 0.01 | 0.01 | 87 | 1006.3 |
| 20260503203011 | 47 | 148 | 0.0 | 3.0 | 0.00 | 0.01 | 0.01 | 86 | 1006.4 |
| 20260503201510 | 47 | 148 | 0.0 | 2.0 | 0.00 | 0.01 | 0.01 | 85 | 1006.4 |
| 20260503200010 | 47 | 149 | 0.0 | 1.0 | 0.00 | 0.01 | 0.01 | 84 | 1006.5 |
| 20260503194510 | 48 | 148 | 0.0 | 2.0 | 0.00 | 0.01 | 0.01 | 84 | 1006.8 |
| 20260503193010 | 48 | 148 | 1.0 | 6.0 | 0.00 | 0.01 | 0.01 | 84 | 1006.9 |
| 20260503191510 | 48 | 150 | 0.0 | 5.0 | 0.00 | 0.01 | 0.01 | 83 | 1006.8 |
| 20260503190027 | 48 | 148 | 2.0 | 7.0 | 0.00 | 0.01 | 0.01 | 83 | 1006.8 |
| 20260503184510 | 48 | 153 | 3.0 | 9.0 | 0.00 | 0.01 | 0.01 | 83 | 1006.9 |
| 20260503183015 | 48 | 144 | 3.0 | 8.0 | 0.00 | 0.01 | 0.01 | 84 | 1007.0 |
| 20260503181510 | 49 | 136 | 7.0 | 13.0 | 0.00 | 0.01 | 0.01 | 83 | 1006.8 |
| 20260503180012 | 49 | 146 | 8.0 | 12.0 | 0.00 | 0.01 | 0.01 | 82 | 1006.8 |
| 20260503174509 | 50 | 134 | 7.0 | 13.0 | 0.00 | 0.01 | 0.01 | 81 | 1006.7 |
| 20260503173009 | 51 | 147 | 7.0 | 12.0 | 0.00 | 0.01 | 0.01 | 78 | 1006.7 |
| 20260503171514 | 51 | 134 | 5.0 | 11.0 | 0.00 | 0.01 | 0.01 | 76 | 1006.7 |
| 20260503081515 | 55 | 160 | 4.0 | 10.0 | 0.00 | 0.03 | 0.01 | 58 | 1008.9 |
| 20260503071513 | 58 | 26 | 0.0 | 3.0 | 0.00 | 0.03 | 0.01 | 59 | 1009.0 |
| 20260503054509 | 46 | 28 | 3.0 | 6.0 | 0.00 | 0.03 | 0.01 | 84 | 1008.6 |
| 20260503053010 | 45 | 65 | 5.0 | 9.0 | 0.00 | 0.03 | 0.01 | 86 | 1008.6 |
| 20260503051509 | 45 | 16 | 3.0 | 8.0 | 0.00 | 0.03 | 0.01 | 88 | 1008.5 |
| 20260503050012 | 44 | 11 | 2.0 | 5.0 | 0.00 | 0.03 | 0.01 | 90 | 1008.5 |
| 20260503044510 | 44 | 5 | 0.0 | 5.0 | 0.00 | 0.03 | 0.01 | 91 | 1008.4 |
| 20260503043009 | 43 | 32 | 4.0 | 9.0 | 0.00 | 0.03 | 0.01 | 92 | 1008.5 |
| 20260503040009 | 43 | 11 | 2.0 | 4.0 | 0.01 | 0.03 | 0.01 | 94 | 1008.7 |
| 20260503034510 | 43 | 11 | 0.0 | 6.0 | 0.01 | 0.03 | 0.01 | 94 | 1008.6 |
| 20260503033011 | 42 | 11 | 1.0 | 6.0 | 0.01 | 0.03 | 0.01 | 94 | 1008.6 |
| 20260503031509 | 42 | 162 | 0.0 | 0.0 | 0.00 | 0.02 | 0.00 | 94 | 1008.6 |
| 20260503030009 | 42 | 163 | 0.0 | 0.0 | 0.00 | 0.02 | 0.00 | 94 | 1008.6 |
| 20260503024512 | 42 | 162 | 0.0 | 0.0 | 0.00 | 0.02 | 0.00 | 93 | 1008.5 |
| 20260503023009 | 42 | 164 | 0.0 | 2.0 | 0.00 | 0.02 | 0.00 | 93 | 1008.5 |